#timestamp,LO_Frequency,Hit,Temp,Hum 
1479805215.5,286046971.0,N,0.0,0.0
1479805235.4,286046973.5,N,0.0,0.0
1479805255.2,286046973.2,N,0.0,0.0
1479805275.0,286046972.7,N,0.0,0.0
1479805275.9,286046972.7,N,0.0,0.0
1479805295.8,286046973.0,N,0.0,0.0
1479805315.6,286046972.5,N,0.0,0.0
1479805335.5,286046975.1,N,0.0,0.0
1479805355.3,286046975.6,N,0.0,0.0
1479805375.1,286046972.5,N,0.0,0.0
1479805395.9,286046975.3,N,0.0,0.0
1479805415.7,286046975.0,N,0.0,0.0
1479805435.5,286046975.3,N,0.0,0.0
1479805455.4,286046974.8,N,0.0,0.0
1479805475.2,286046975.2,N,0.0,0.0
1479805495.1,286046974.9,N,0.0,0.0
1479805496.0,286046974.9,N,0.0,0.0
1479805515.8,286046975.6,N,0.0,0.0
1479805535.6,286046975.5,N,0.0,0.0
1479805555.5,286046975.6,N,0.0,0.0
1479805575.3,286046975.3,N,0.0,0.0
1479805595.2,286046975.5,N,0.0,0.0
1479805615.9,286046975.2,N,0.0,0.0
1479805635.7,286046974.4,N,0.0,0.0
1479805655.6,286046976.9,N,0.0,0.0
1479805675.4,286046974.5,N,0.0,0.0
1479805695.2,286046977.2,N,0.0,0.0
1479805715.1,286046974.1,N,0.0,0.0
1479805716.0,286046974.1,N,0.0,0.0
1479805735.8,286046976.4,N,0.0,0.0
1479805755.7,286046977.1,N,0.0,0.0
1479805775.5,286046977.0,N,0.0,0.0
1479805795.3,286046976.6,N,0.0,0.0
1479805815.2,286046976.3,N,0.0,0.0
1479805835.0,286046976.6,N,0.0,0.0
1479805835.9,286046976.6,N,0.0,0.0
1479805855.8,286046976.2,N,0.0,0.0
1479805875.6,286046976.3,N,0.0,0.0
1479805895.4,286046978.3,N,0.0,0.0
1479805915.3,286046978.8,N,0.0,0.0
1479805935.1,286046978.4,N,0.0,0.0
1479805955.8,286046976.1,N,0.0,0.0
1479805975.7,286046976.1,N,0.0,0.0
1479805995.5,286046976.3,N,0.0,0.0
1479806015.4,286046978.5,N,0.0,0.0
1479806035.2,286046978.6,N,0.0,0.0
1479806055.0,286046977.6,N,0.0,0.0
1479806055.9,286046977.6,N,0.0,0.0
1479806075.8,286046978.3,N,0.0,0.0
1479806095.6,286046977.8,N,0.0,0.0
1479806115.5,286046979.7,N,0.0,0.0
1479806135.3,286046979.5,N,0.0,0.0
1479806155.1,286046977.4,N,0.0,0.0
1479806175.9,286046977.9,N,0.0,0.0
1479806195.7,286046980.2,N,0.0,0.0
1479806215.5,286046982.0,N,0.0,0.0
1479806235.4,286046979.7,N,0.0,0.0
1479806255.2,286046980.4,N,0.0,0.0
1479806275.1,286046979.8,N,0.0,0.0
1479806276.0,286046979.8,N,0.0,0.0
1479806295.8,286046979.1,N,0.0,0.0
1479806315.6,286046979.3,N,0.0,0.0
1479806335.5,286046981.6,N,0.0,0.0
1479806355.3,286046979.7,N,0.0,0.0
1479806375.1,286046981.8,N,0.0,0.0
1479806395.9,286046979.5,N,0.0,0.0
1479806415.7,286046981.6,N,0.0,0.0
1479806435.6,286046981.9,N,0.0,0.0
1479806455.4,286046980.5,N,0.0,0.0
1479806475.2,286046982.4,N,0.0,0.0
1479806495.1,286046982.1,N,0.0,0.0
1479806496.0,286046982.1,N,0.0,0.0
1479806515.8,286046985.1,N,0.0,0.0
1479806535.7,286046984.4,N,0.0,0.0
1479806555.5,286046983.9,N,0.0,0.0
1479806575.3,286046984.2,N,0.0,0.0
1479806595.2,286046986.8,N,0.0,0.0
1479806615.0,286046986.8,N,0.0,0.0
1479806615.9,286046986.8,N,0.0,0.0
1479806635.8,286046986.3,N,0.0,0.0
1479806655.6,286046984.8,N,0.0,0.0
1479806675.4,286046982.5,N,0.0,0.0
1479806695.3,286046984.8,N,0.0,0.0
1479806715.1,286046982.2,N,0.0,0.0
1479806735.8,286046982.5,N,0.0,0.0
1479806755.7,286046982.3,N,0.0,0.0
1479806775.5,286046982.3,N,0.0,0.0
1479806795.4,286046983.5,N,0.0,0.0
1479806815.2,286046980.9,N,0.0,0.0
1479806835.0,286046981.1,N,0.0,0.0
1479806835.9,286046981.1,N,0.0,0.0
1479806855.8,286046980.6,N,0.0,0.0
1479806875.6,286046981.1,N,0.0,0.0
1479806895.4,286046981.7,N,0.0,0.0
1479806915.3,286046979.2,N,0.0,0.0
1479806935.1,286046979.2,N,0.0,0.0
1479806955.9,286046977.5,N,0.0,0.0
1479806975.7,286046980.4,N,0.0,0.0
1479806995.5,286046979.7,N,0.0,0.0
1479807015.4,286046980.2,N,0.0,0.0
1479807035.2,286046977.6,N,0.0,0.0
1479807055.0,286046978.3,N,0.0,0.0
1479807055.9,286046978.3,N,0.0,0.0
1479807075.8,286046976.2,N,0.0,0.0
1479807095.6,286046978.8,N,0.0,0.0
1479807115.5,286046976.2,N,0.0,0.0
1479807135.3,286046977.1,N,0.0,0.0
1479807155.1,286046974.7,N,0.0,0.0
1479807175.9,286046976.8,N,0.0,0.0
1479807195.7,286046975.3,N,0.0,0.0
1479807215.5,286046975.2,N,0.0,0.0
1479807235.4,286046975.1,N,0.0,0.0
1479807255.2,286046975.0,N,0.0,0.0
1479807275.1,286046975.4,N,0.0,0.0
1479807276.0,286046975.4,N,0.0,0.0
1479807295.8,286046975.0,N,0.0,0.0
1479807315.6,286046972.5,N,0.0,0.0
1479807335.5,286046975.0,N,0.0,0.0
1479807355.3,286046975.5,N,0.0,0.0
1479807375.2,286046973.2,N,0.0,0.0
1479807395.9,286046973.6,N,0.0,0.0
1479807415.7,286046973.4,N,0.0,0.0
1479807435.6,286046971.3,N,0.0,0.0
1479807455.4,286046973.9,N,0.0,0.0
1479807475.2,286046974.0,N,0.0,0.0
1479807495.1,286046973.3,N,0.0,0.0
1479807496.0,286046973.3,N,0.0,0.0
1479807515.8,286046973.7,N,0.0,0.0
1479807535.7,286046973.7,N,0.0,0.0
1479807555.5,286046973.5,N,0.0,0.0
1479807575.3,286046973.3,N,0.0,0.0
1479807595.2,286046971.0,N,0.0,0.0
1479807615.0,286046973.9,N,0.0,0.0
1479807615.9,286046973.9,N,0.0,0.0
1479807635.8,286046973.9,N,0.0,0.0
1479807655.6,286046973.6,N,0.0,0.0
1479807675.4,286046971.2,N,0.0,0.0
1479807695.3,286046971.5,N,0.0,0.0
1479807715.1,286046972.1,N,0.0,0.0
1479807735.9,286046972.3,N,0.0,0.0
1479807755.7,286046970.2,N,0.0,0.0
1479807775.5,286046970.1,N,0.0,0.0
1479807795.4,286046970.7,N,0.0,0.0
1479807815.2,286046970.8,N,0.0,0.0
1479807835.0,286046968.2,N,0.0,0.0
1479807835.9,286046968.2,N,0.0,0.0
1479807855.8,286046968.4,N,0.0,0.0
1479807875.6,286046967.9,N,0.0,0.0
1479807895.5,286046970.4,N,0.0,0.0
1479807915.3,286046966.2,N,0.0,0.0
1479807935.1,286046966.8,N,0.0,0.0
1479807955.9,286046966.9,N,0.0,0.0
1479807975.7,286046966.1,N,0.0,0.0
1479807995.6,286046967.0,N,0.0,0.0
1479808015.4,286046967.2,N,0.0,0.0
1479808035.2,286046967.5,N,0.0,0.0
1479808055.1,286046967.0,N,0.0,0.0
1479808056.0,286046967.0,N,0.0,0.0
1479808075.8,286046967.1,N,0.0,0.0
1479808095.6,286046964.5,N,0.0,0.0
1479808115.5,286046967.5,N,0.0,0.0
1479808135.3,286046967.1,N,0.0,0.0
1479808155.2,286046964.9,N,0.0,0.0
1479808175.9,286046963.0,N,0.0,0.0
1479808195.7,286046963.1,N,0.0,0.0
1479808215.6,286046963.6,N,0.0,0.0
1479808235.4,286046963.6,N,0.0,0.0
1479808255.3,286046963.4,N,0.0,0.0
1479808275.1,286046963.4,N,0.0,0.0
1479808276.0,286046963.4,N,0.0,0.0
1479808295.8,286046962.9,N,0.0,0.0
1479808315.7,286046963.8,N,0.0,0.0
1479808335.5,286046964.2,N,0.0,0.0
1479808355.3,286046961.7,N,0.0,0.0
1479808375.2,286046964.2,N,0.0,0.0
1479808395.0,286046963.4,N,0.0,0.0
1479808395.9,286046963.4,N,0.0,0.0
1479808415.8,286046963.8,N,0.0,0.0
1479808435.6,286046961.4,N,0.0,0.0
1479808455.4,286046961.4,N,0.0,0.0
1479808475.3,286046960.1,N,0.0,0.0
1479808495.1,286046960.1,N,0.0,0.0
1479808515.9,286046962.4,N,0.0,0.0
1479808535.7,286046962.2,N,0.0,0.0
1479808555.5,286046960.0,N,0.0,0.0
1479808575.4,286046960.6,N,0.0,0.0
1479808595.2,286046958.8,N,0.0,0.0
1479808615.0,286046959.4,N,0.0,0.0
1479808615.9,286046959.4,N,0.0,0.0
1479808635.8,286046956.5,N,0.0,0.0
1479808655.6,286046957.0,N,0.0,0.0
1479808675.5,286046956.5,N,0.0,0.0
1479808695.3,286046958.6,N,0.0,0.0
1479808715.1,286046959.1,N,0.0,0.0
1479808735.9,286046957.0,N,0.0,0.0
1479808755.7,286046957.1,N,0.0,0.0
1479808775.6,286046956.6,N,0.0,0.0
1479808795.4,286046956.8,N,0.0,0.0
